This is the latest recevied weather packets stored in our database for station/object KJ4AJP. If no packets are shown the sender has not sent any weather packets the latest 10 day(s).
| Time | Temp. | Humidity | Pressure | Rain* | Wind** | Luminosity | Snow |
|---|---|---|---|---|---|---|---|
| 1778118063 | 11.67° C | 98% | 1015.2 hPa | 0 mm | - | 0 W/m² | - |
| 1778117759 | 11.67° C | 97% | 1015.1 hPa | 0 mm | - | 0 W/m² | - |
| 1778117457 | 11.67° C | 97% | 1015.4 hPa | 0 mm | - | 0 W/m² | - |
| 1778117154 | 11.67° C | 97% | 1015.6 hPa | 0 mm | - | 0 W/m² | - |
| 1778116850 | 11.67° C | 97% | 1015.3 hPa | 0 mm | - | 0 W/m² | - |
| 1778116548 | 12.22° C | 97% | 1015.4 hPa | 0 mm | - | 0 W/m² | - |
| 1778116244 | 12.22° C | 97% | 1015.4 hPa | 0 mm | - | 0 W/m² | - |
| 1778115938 | 12.22° C | 97% | 1015.4 hPa | 0 mm | - | 0 W/m² | - |
| 1778115635 | 12.22° C | 97% | 1015.7 hPa | 0 mm | - | 0 W/m² | - |
| 1778115333 | 12.22° C | 97% | 1015.4 hPa | 0 mm | - | 1 W/m² | - |
| 1778115029 | 12.22° C | 96% | 1015.6 hPa | 0 mm | - | 1 W/m² | - |
| 1778114726 | 12.22° C | 96% | 1015.6 hPa | 0 mm | - | 2 W/m² | - |
| 1778114423 | 12.22° C | 96% | 1015.6 hPa | 0 mm | - | 2 W/m² | - |
| 1778114119 | 12.22° C | 96% | 1015.8 hPa | 0 mm | - | 2 W/m² | - |
| 1778113814 | 12.22° C | 96% | 1015.8 hPa | 0 mm | - | 4 W/m² | - |
| 1778113511 | 12.22° C | 96% | 1015.7 hPa | 0 mm | - | 8 W/m² | - |
| 1778113207 | 12.22° C | 96% | 1015.6 hPa | 0 mm | - | 11 W/m² | - |
| 1778112903 | 12.22° C | 96% | 1015.8 hPa | 0 mm | - | 10 W/m² | - |
| 1778112601 | 12.22° C | 96% | 1015.2 hPa | 0 mm | - | 10 W/m² | - |
| 1778112297 | 12.22° C | 95% | 1015.2 hPa | 0 mm | - | 10 W/m² | - |
| 1778111992 | 12.22° C | 95% | 1015 hPa | 0 mm | - | 12 W/m² | - |
| 1778111690 | 12.22° C | 96% | 1014.9 hPa | 0 mm | - | 15 W/m² | - |
| 1778111386 | 12.78° C | 96% | 1014.8 hPa | 0 mm | - | 14 W/m² | - |
| 1778111083 | 12.78° C | 96% | 1014.4 hPa | 0 mm | - | 18 W/m² | - |
| 1778110781 | 12.78° C | 96% | 1014 hPa | 0 mm | - | 26 W/m² | - |
* Rain latest hour (hover to see other rain measurements)
** Current wind speed in m/s (hover to see current wind gust speed)